This is the latest recevied weather packets stored in our database for station/object KN4DS-3. If no packets are shown the sender has not sent any weather packets the latest 1 day(s).
| Time | Temp. | Humidity | Pressure | Rain* | Wind** | Luminosity | Snow |
|---|---|---|---|---|---|---|---|
| 1778022004 | 26.67° C | 36% | 1013.8 hPa | 0 mm | 0.45 m/s, 259° | - | - |
| 1778021704 | 26.67° C | 37% | 1013.8 hPa | 0 mm | 0.45 m/s, 262° | - | - |
| 1778021405 | 27.22° C | 38% | 1013.7 hPa | 0 mm | 0.89 m/s, 228° | - | - |
| 1778021104 | 27.22° C | 37% | 1013.6 hPa | 0 mm | 0.45 m/s, 112° | - | - |
| 1778020804 | 27.22° C | 36% | 1013.8 hPa | 0 mm | 0.45 m/s, 151° | - | - |
| 1778020504 | 27.22° C | 36% | 1013.8 hPa | 0 mm | 0.89 m/s, 134° | - | - |
| 1778020216 | 27.22° C | 35% | 1013.9 hPa | 0 mm | 0.89 m/s, 172° | - | - |
| 1778019904 | 27.22° C | 36% | 1013.9 hPa | 0 mm | 0.45 m/s, 317° | - | - |
| 1778019604 | 27.22° C | 36% | 1013.8 hPa | 0 mm | 0.89 m/s, 257° | - | - |
| 1778019304 | 27.22° C | 37% | 1013.9 hPa | 0 mm | 0.89 m/s, 216° | - | - |
| 1778019005 | 27.22° C | 37% | 1013.9 hPa | 0 mm | 0.89 m/s, 184° | - | - |
| 1778018704 | 27.22° C | 36% | 1014 hPa | 0 mm | 1.34 m/s, 196° | - | - |
| 1778018404 | 27.78° C | 37% | 1014 hPa | 0 mm | 0.89 m/s, 170° | - | - |
| 1778018104 | 27.22° C | 38% | 1013.9 hPa | 0 mm | 0.45 m/s, 247° | - | - |
| 1778017805 | 27.22° C | 37% | 1013.8 hPa | 0 mm | 0.89 m/s, 211° | - | - |
| 1778017504 | 27.22° C | 38% | 1014 hPa | 0 mm | 0.89 m/s, 99° | - | - |
| 1778017205 | 27.78° C | 38% | 1014.3 hPa | 0 mm | 1.34 m/s, 146° | - | - |
| 1778016904 | 27.78° C | 37% | 1014.3 hPa | 0 mm | 0.89 m/s, 24° | - | - |
| 1778016604 | 27.78° C | 39% | 1014.3 hPa | 0 mm | 0.45 m/s, 133° | - | - |
| 1778016304 | 27.78° C | 38% | 1014.3 hPa | 0 mm | 0.89 m/s, 85° | - | - |
| 1778016004 | 28.33° C | 38% | 1014.2 hPa | 0 mm | 0.45 m/s, 227° | - | - |
| 1778015704 | 28.33° C | 37% | 1014.1 hPa | 0 mm | 0.89 m/s, 166° | - | - |
| 1778015405 | 28.33° C | 39% | 1014.2 hPa | 0 mm | 0.45 m/s, 332° | - | - |
| 1778015104 | 28.33° C | 38% | 1014.1 hPa | 0 mm | 1.34 m/s, 251° | - | - |
| 1778014804 | 28.33° C | 38% | 1014.3 hPa | 0 mm | 0.45 m/s, 93° | - | - |
* Rain latest hour (hover to see other rain measurements)
** Current wind speed in m/s (hover to see current wind gust speed)